EW0805 Weather Reports


Display with metric or nautical units.
time (UTC)temp
F
wind
direction
speed
MPH
gust
MPH
rain 1hr
in
rain 24hr
in
rain mn
in
humidity
%
barometer
mb
20260510151530 54 62 5.0 13.0 0.00 0.00 0.00 60 1016.0
20260510150038 54 45 6.0 16.0 0.00 0.00 0.00 60 1016.2
20260510144522 54 348 6.0 16.0 0.00 0.00 0.00 60 1016.3
20260510143019 54 42 6.0 14.0 0.00 0.00 0.00 60 1016.4
20260510141522 55 312 4.0 13.0 0.00 0.00 0.00 60 1016.5
20260510140007 54 50 5.0 16.0 0.00 0.00 0.00 60 1016.5
20260510134607 54 19 5.0 15.0 0.00 0.00 0.00 60 1016.7
20260510133056 55 333 5.0 14.0 0.00 0.00 0.00 60 1016.5
20260510131552 54 348 4.0 13.0 0.00 0.00 0.00 60 1016.7
20260510130049 54 5 5.0 15.0 0.00 0.00 0.00 60 1016.9
20260510124554 55 78 7.0 11.0 0.00 0.00 0.00 58 1016.9
20260510123040 55 4 4.0 14.0 0.00 0.00 0.00 58 1017.1
20260510121535 55 54 6.0 13.0 0.00 0.00 0.00 58 1017.2
20260510120031 55 50 7.0 14.0 0.00 0.00 0.00 59 1017.3
20260510114534 56 109 3.0 19.0 0.00 0.00 0.00 60 1017.2
20260510113021 58 33 10.0 17.0 0.00 0.00 0.00 59 1017.4
20260510111517 58 25 9.0 18.0 0.00 0.00 0.00 59 1017.5
20260510110011 59 39 5.0 15.0 0.00 0.00 0.00 59 1017.6
20260510104518 58 37 6.0 21.0 0.00 0.00 0.00 59 1017.7
20260510103003 57 81 7.0 17.0 0.00 0.00 0.00 59 1017.7
20260510101609 56 12 6.0 14.0 0.00 0.00 0.00 58 1017.7
20260510100057 55 35 8.0 16.0 0.00 0.00 0.00 57 1017.6
20260510094552 54 321 8.0 17.0 0.00 0.00 0.00 59 1017.7
20260510093046 54 34 9.0 25.0 0.00 0.00 0.00 58 1017.8
20260510091541 54 52 7.0 20.0 0.00 0.00 0.00 55 1017.9
20260510090036 53 36 6.0 16.0 0.00 0.00 0.00 50 1018.1
20260510084532 53 63 9.0 19.0 0.00 0.00 0.00 46 1018.2
20260510083028 52 21 5.0 14.0 0.00 0.00 0.00 40 1018.3
20260510081534 52 33 7.0 13.0 0.00 0.00 0.00 38 1018.3
20260510080018 52 34 7.0 16.0 0.00 0.00 0.00 30 1018.3
20260510074513 52 59 5.0 17.0 0.00 0.00 0.00 23 1018.3
20260510073009 52 64 2.0 11.0 0.00 0.00 0.00 13 1018.3
20260510071506 52 39 6.0 12.0 0.00 0.00 0.00 8 1018.2
20260510070100 52 50 4.0 11.0 0.00 0.00 0.00 1 1018.2
20260510063016 51 27 2.0 14.0 0.00 0.00 0.00 1 1018.2
20260510061516 51 23 3.0 12.0 0.00 0.00 0.00 1 1018.1
20260510060006 50 341 5.0 11.0 0.00 0.00 0.00 1 1018.0
20260510054615 50 27 2.0 12.0 0.00 0.00 0.00 1 1017.9
20260510053055 50 51 3.0 9.0 0.00 0.00 0.00 1 1018.1
20260510051552 50 358 2.0 10.0 0.00 0.00 0.00 1 1018.1
20260510050052 50 8 1.0 10.0 0.00 0.00 0.00 1 1018.0
20260510044546 50 344 1.0 9.0 0.00 0.00 0.00 1 1018.0
20260510043038 50 62 1.0 8.0 0.00 0.00 0.00 1 1017.9
20260510041540 50 64 2.0 9.0 0.00 0.00 0.00 1 1017.9
20260510040028 50 327 2.0 8.0 0.00 0.00 0.00 1 1018.2
20260510034524 50 4 1.0 11.0 0.00 0.00 0.00 1 1018.3
20260510033020 50 21 2.0 7.0 0.00 0.00 0.00 1 1018.3
20260510031515 50 46 2.0 7.0 0.00 0.00 0.00 1 1018.4
20260510030014 51 52 0.0 7.0 0.00 0.00 0.00 1 1018.4
20260510024507 51 58 0.0 4.0 0.00 0.00 0.00 1 1018.4
20260510023005 51 8 1.0 6.0 0.00 0.00 0.00 1 1018.4
20260510021559 51 17 2.0 6.0 0.00 0.00 0.00 1 1018.4
20260510020054 51 52 2.0 8.0 0.00 0.00 0.00 1 1018.3
20260510014611 52 344 1.0 6.0 0.00 0.00 0.00 4 1018.4
20260510013059 52 5 1.0 5.0 0.00 0.00 0.00 11 1018.5
20260510011544 52 54 1.0 4.0 0.00 0.00 0.00 27 1018.5
20260510010039 51 21 1.0 6.0 0.00 0.00 0.00 39 1018.3
20260510004541 51 348 2.0 6.0 0.00 0.00 0.00 53 1018.4
20260510003032 51 29 2.0 8.0 0.00 0.00 0.00 61 1018.4
20260510001529 52 4 2.0 8.0 0.00 0.00 0.00 62 1018.5
20260510000026 52 29 2.0 9.0 0.00 0.00 0.00 61 1018.4
20260509234523 53 326 3.0 9.0 0.00 0.00 0.00 61 1018.3
20260509233020 53 36 4.0 9.0 0.00 0.00 0.00 60 1018.2
20260509231517 54 37 4.0 9.0 0.00 0.00 0.00 60 1018.2
20260509230015 54 353 2.0 9.0 0.00 0.00 0.00 59 1018.2
20260509224510 54 43 1.0 6.0 0.00 0.00 0.00 58 1018.1
20260509223006 55 11 2.0 5.0 0.00 0.00 0.00 57 1018.0
20260509221501 55 358 1.0 5.0 0.00 0.00 0.00 56 1018.0
20260509220058 55 77 2.0 6.0 0.00 0.00 0.00 56 1018.0
20260509214551 56 50 2.0 6.0 0.00 0.00 0.00 57 1018.1
20260509213048 57 83 1.0 3.0 0.00 0.00 0.00 56 1018.1
20260509211548 58 56 1.0 5.0 0.00 0.00 0.00 55 1017.8
20260509210050 58 61 1.0 6.0 0.00 0.00 0.00 54 1017.6
20260509204537 59 60 1.0 5.0 0.00 0.00 0.00 53 1017.6
20260509203036 59 46 1.0 6.0 0.00 0.00 0.00 52 1017.5
20260509201534 60 74 3.0 10.0 0.00 0.00 0.00 51 1017.4
20260509200032 61 95 2.0 7.0 0.00 0.00 0.00 51 1017.3
20260509194527 61 90 2.0 8.0 0.00 0.00 0.00 50 1017.1
20260509193021 62 55 2.0 7.0 0.00 0.00 0.00 49 1017.0
20260509191518 63 98 1.0 9.0 0.00 0.00 0.00 47 1016.9
20260509190011 64 125 4.0 8.0 0.00 0.00 0.00 46 1016.8
20260509184514 65 100 2.0 10.0 0.00 0.00 0.00 46 1016.8
20260509183003 66 75 3.0 12.0 0.00 0.00 0.00 45 1016.5
20260509181559 67 71 5.0 11.0 0.00 0.00 0.00 45 1016.4
20260509180054 67 51 3.0 10.0 0.00 0.00 0.00 45 1016.3
20260509174550 67 73 3.0 10.0 0.00 0.00 0.00 45 1016.1
20260509173113 68 56 5.0 11.0 0.00 0.00 0.00 44 1016.0
20260509171544 68 56 3.0 10.0 0.00 0.00 0.00 45 1016.0
20260509170040 68 97 5.0 12.0 0.00 0.00 0.00 43 1016.3
20260509164535 69 20 4.0 10.0 0.00 0.00 0.00 42 1016.3
20260509163031 70 29 3.0 14.0 0.00 0.00 0.00 42 1016.2
20260509161527 70 126 4.0 11.0 0.00 0.00 0.00 40 1016.2
20260509160023 70 49 5.0 12.0 0.00 0.00 0.00 42 1016.3
20260509154518 70 35 4.0 10.0 0.00 0.00 0.00 40 1016.4
20260509153022 71 42 4.0 10.0 0.00 0.00 0.00 42 1016.6